Location: Mercogliano
(40.9167°N, 14.7333°E)
Time: 04:15:06
(UTC+00:00)

Cosmos 1743 - Pass Details

Date: 18 September 2020
Orbit: 510 x 527 km, 82.6° (Epoch: 25 October)

Event Time Altitude Azimuth Distance (km) Brightness Sun altitude
Rises 17:39:04 0° 202° (SSW) 2,635 6.5 -7.3°
Reaches altitude 10° 17:41:17 10° 210° (SSW) 1,749 5.7 -7.7°
Maximum altitude 17:44:55 40° 281° (WNW) 771 4.3 -8.4°
Drops below altitude 10° 17:48:34 10° 353° (N) 1,753 5.6 -9.1°
Sets 17:50:48 0° 1° (N) 2,643 6.4 -9.5°
